Location: Sevilla
(37.3933°N, 5.9839°W)
Time: 04:36:17
(UTC+02:00)

Vanguard 3 - Pass Details

Date: 27 June 2024
Orbit: 508 x 3231 km, 33.4° (Epoch: 15 July)

Event Time Altitude Azimuth Distance (km) Brightness Sun altitude
Rises 11:38:37 0° 261° (W) 6,069 11.2 51.4°
Reaches altitude 10° 11:43:18 10° 259° (W) 4,632 10.8 52.3°
Maximum altitude 11:54:53 68° 180° (S) 1,425 9.4 54.6°
Drops below altitude 10° 12:01:14 10° 99° (E) 2,640 10.5 55.8°
Sets 12:03:15 0° 96° (E) 3,357 10.8 56.2°
